| time (UTC) | temp C | wind direction | speed KPH | gust KPH | rain 1hr cm | rain 24hr cm | rain mn cm | humidity % | barometer mb |
| 20260508203056 | 11 | 13 | 12.9 | 19.3 | 0.00 | 0.23 | 0.00 | 73 | 1001.6 |
| 20260508201556 | 11 | 24 | 11.3 | 16.1 | 0.00 | 0.23 | 0.00 | 75 | 1001.6 |
| 20260508200053 | 11 | 90 | 4.8 | 12.9 | 0.00 | 0.23 | 0.00 | 75 | 1001.6 |
| 20260508194616 | 10 | 65 | 6.4 | 14.5 | 0.00 | 0.71 | 0.00 | 78 | 1001.6 |
| 20260508193048 | 9 | 38 | 6.4 | 14.5 | 0.00 | 0.71 | 0.00 | 77 | 1001.5 |
| 20260508191548 | 10 | 22 | 6.4 | 14.5 | 0.00 | 0.71 | 0.00 | 78 | 1001.4 |
| 20260508190048 | 9 | 45 | 8.0 | 14.5 | 0.00 | 0.71 | 0.00 | 79 | 1001.5 |
| 20260508184548 | 10 | 50 | 8.0 | 14.5 | 0.00 | 1.42 | 0.00 | 78 | 1001.5 |
| 20260508183047 | 10 | 37 | 6.4 | 16.1 | 0.00 | 1.42 | 0.00 | 76 | 1001.4 |
| 20260508181610 | 11 | 37 | 8.0 | 17.7 | 0.00 | 1.42 | 0.00 | 77 | 1001.3 |
| 20260508180054 | 10 | 31 | 11.3 | 20.9 | 0.00 | 1.42 | 0.00 | 81 | 1001.6 |
| 20260508174546 | 10 | 44 | 12.9 | 20.9 | 0.00 | 1.42 | 0.00 | 81 | 1001.8 |
| 20260508173045 | 10 | 36 | 11.3 | 22.5 | 0.00 | 1.42 | 0.00 | 84 | 1001.8 |
| 20260508171543 | 10 | 37 | 17.7 | 25.7 | 0.00 | 1.42 | 0.00 | 82 | 1001.6 |
| 20260508170042 | 10 | 60 | 14.5 | 25.7 | 0.00 | 1.42 | 0.00 | 81 | 1001.8 |
| 20260508164541 | 10 | 38 | 16.1 | 25.7 | 0.00 | 1.42 | 0.00 | 78 | 1001.7 |
| 20260508163043 | 10 | 50 | 12.9 | 20.9 | 0.00 | 1.42 | 0.00 | 78 | 1001.6 |
| 20260508161540 | 10 | 34 | 12.9 | 22.5 | 0.00 | 1.42 | 0.00 | 77 | 1001.5 |
| 20260508160039 | 10 | 36 | 8.0 | 16.1 | 0.00 | 1.42 | 0.00 | 78 | 1001.7 |
| 20260508154640 | 10 | 31 | 11.3 | 17.7 | 0.00 | 1.42 | 0.00 | 78 | 1001.7 |
| 20260508153045 | 10 | 40 | 9.7 | 19.3 | 0.00 | 1.42 | 0.00 | 83 | 1002.1 |
| 20260508151537 | 10 | 34 | 11.3 | 19.3 | 0.00 | 1.42 | 0.00 | 84 | 1002.2 |
| 20260508150037 | 10 | 34 | 14.5 | 17.7 | 0.00 | 1.42 | 0.00 | 83 | 1001.9 |
| 20260508144536 | 10 | 28 | 9.7 | 16.1 | 0.00 | 1.42 | 0.00 | 82 | 1002.2 |
| 20260508143037 | 10 | 25 | 6.4 | 16.1 | 0.00 | 1.42 | 0.00 | 81 | 1002.4 |
| 20260508141535 | 10 | 27 | 11.3 | 16.1 | 0.00 | 1.42 | 0.00 | 81 | 1002.6 |
| 20260508140037 | 10 | 24 | 9.7 | 16.1 | 0.00 | 1.42 | 0.00 | 80 | 1002.7 |
| 20260508134533 | 10 | 31 | 6.4 | 11.3 | 0.00 | 1.42 | 0.00 | 76 | 1002.6 |
| 20260508133038 | 10 | 22 | 3.2 | 9.7 | 0.00 | 1.42 | 0.00 | 77 | 1002.4 |
| 20260508131527 | 10 | 22 | 3.2 | 9.7 | 0.00 | 1.42 | 0.00 | 82 | 1002.5 |
| 20260508130027 | 10 | 22 | 4.8 | 8.0 | 0.00 | 1.42 | 0.00 | 83 | 1002.5 |
| 20260508124521 | 10 | 18 | 4.8 | 9.7 | 0.00 | 1.45 | 0.00 | 84 | 1002.3 |
| 20260508123018 | 9 | 17 | 3.2 | 6.4 | 0.00 | 1.45 | 0.00 | 86 | 1002.3 |
| 20260508121517 | 8 | 17 | 1.6 | 6.4 | 0.00 | 1.45 | 0.00 | 92 | 1002.5 |
| 20260508120015 | 8 | 17 | 1.6 | 4.8 | 0.00 | 1.45 | 0.00 | 94 | 1002.6 |
| 20260508114513 | 7 | 17 | 1.6 | 4.8 | 0.00 | 1.45 | 0.00 | 94 | 1002.5 |
| 20260508113014 | 7 | 17 | 3.2 | 4.8 | 0.00 | 1.45 | 0.00 | 95 | 1002.6 |
| 20260508111514 | 7 | 17 | 0.0 | 3.2 | 0.00 | 1.45 | 0.00 | 96 | 1002.8 |
| 20260508110011 | 6 | 17 | 0.0 | 1.6 | 0.00 | 1.45 | 0.00 | 96 | 1002.9 |
| 20260508104511 | 6 | 17 | 0.0 | 0.0 | 0.00 | 1.45 | 0.00 | 96 | 1002.7 |
| 20260508103016 | 6 | 17 | 0.0 | 1.6 | 0.00 | 1.45 | 0.00 | 96 | 1002.8 |
| 20260508101507 | 5 | 17 | 0.0 | 3.2 | 0.00 | 1.45 | 0.00 | 96 | 1002.6 |
| 20260508100006 | 5 | 17 | 0.0 | 4.8 | 0.00 | 1.45 | 0.00 | 96 | 1002.3 |
| 20260508094505 | 5 | 17 | 3.2 | 6.4 | 0.00 | 1.45 | 0.00 | 96 | 1002.1 |
| 20260508093005 | 4 | 19 | 0.0 | 0.0 | 0.00 | 1.45 | 0.00 | 95 | 1002.2 |
| 20260508091505 | 4 | 20 | 1.6 | 4.8 | 0.00 | 1.45 | 0.00 | 95 | 1002.1 |
| 20260508090001 | 4 | 19 | 1.6 | 4.8 | 0.00 | 1.45 | 0.00 | 95 | 1001.9 |
| 20260508084559 | 5 | 19 | 0.0 | 3.2 | 0.00 | 1.45 | 0.00 | 95 | 1001.6 |
| 20260508083101 | 5 | 19 | 0.0 | 0.0 | 0.00 | 1.45 | 0.00 | 95 | 1001.8 |
| 20260508081619 | 5 | 19 | 0.0 | 4.8 | 0.00 | 1.45 | 0.00 | 95 | 1001.4 |
| 20260508080058 | 5 | 19 | 0.0 | 4.8 | 0.00 | 1.45 | 0.00 | 94 | 1001.3 |
| 20260508074551 | 5 | 19 | 0.0 | 1.6 | 0.00 | 1.45 | 0.00 | 94 | 1001.8 |
| 20260508073052 | 6 | 19 | 1.6 | 4.8 | 0.00 | 1.45 | 0.00 | 94 | 1001.9 |
| 20260508071549 | 6 | 20 | 0.0 | 1.6 | 0.00 | 1.45 | 0.00 | 95 | 1001.9 |
| 20260508070052 | 6 | 20 | 1.6 | 6.4 | 0.00 | 1.45 | 0.00 | 95 | 1001.8 |
| 20260508064545 | 6 | 19 | 3.2 | 6.4 | 0.00 | 1.45 | 0.00 | 95 | 1001.7 |
| 20260508063043 | 6 | 28 | 1.6 | 4.8 | 0.00 | 1.45 | 0.00 | 95 | 1001.8 |
| 20260508061543 | 6 | 28 | 1.6 | 4.8 | 0.00 | 1.45 | 0.00 | 95 | 1001.6 |
| 20260508060042 | 6 | 27 | 0.0 | 6.4 | 0.00 | 1.45 | 0.00 | 95 | 1001.8 |
| 20260508054545 | 6 | 26 | 1.6 | 4.8 | 0.00 | 1.45 | 0.00 | 95 | 1001.8 |
| 20260508053040 | 6 | 19 | 1.6 | 4.8 | 0.00 | 1.45 | 0.00 | 94 | 1001.9 |
| 20260508051538 | 6 | 19 | 1.6 | 8.0 | 0.00 | 1.45 | 0.00 | 94 | 1001.8 |
| 20260508050037 | 6 | 25 | 8.0 | 17.7 | 0.00 | 1.45 | 0.00 | 93 | 1001.8 |
| 20260508044537 | 6 | 30 | 4.8 | 12.9 | 0.00 | 1.45 | 0.00 | 93 | 1001.6 |
| 20260508043030 | 7 | 29 | 4.8 | 8.0 | 0.00 | 1.45 | 0.00 | 93 | 1001.7 |
| 20260508041527 | 7 | 34 | 3.2 | 8.0 | 0.00 | 1.45 | 0.00 | 92 | 1001.8 |
| 20260508040022 | 8 | 11 | 4.8 | 8.0 | 0.00 | 1.45 | 0.00 | 93 | 1001.9 |
| 20260508034519 | 9 | 213 | 3.2 | 4.8 | 0.00 | 1.45 | 0.00 | 94 | 1001.8 |
| 20260508033020 | 9 | 213 | 0.0 | 4.8 | 0.00 | 1.45 | 0.00 | 94 | 1001.8 |
| 20260508031519 | 9 | 197 | 0.0 | 3.2 | 0.00 | 1.45 | 0.00 | 94 | 1001.7 |
| 20260508030016 | 9 | 197 | 3.2 | 9.7 | 0.00 | 1.45 | 1.45 | 94 | 1001.7 |
| 20260508024515 | 9 | 226 | 0.0 | 11.3 | 0.00 | 1.45 | 1.45 | 94 | 1001.9 |
| 20260508023015 | 9 | 244 | 3.2 | 8.0 | 0.00 | 1.45 | 1.45 | 94 | 1001.9 |
| 20260508021511 | 9 | 207 | 3.2 | 9.7 | 0.00 | 1.45 | 1.45 | 94 | 1001.9 |
| 20260508020010 | 9 | 281 | 3.2 | 9.7 | 0.00 | 1.45 | 1.45 | 94 | 1002.0 |
| 20260508014508 | 10 | 287 | 3.2 | 8.0 | 0.00 | 1.45 | 1.45 | 95 | 1002.1 |
| 20260508013005 | 10 | 306 | 1.6 | 4.8 | 0.00 | 1.45 | 1.45 | 94 | 1001.7 |
| 20260508011609 | 10 | 307 | 0.0 | 6.4 | 0.00 | 1.45 | 1.45 | 95 | 1001.7 |
| 20260508010006 | 10 | 346 | 1.6 | 6.4 | 0.00 | 1.45 | 1.45 | 94 | 1001.8 |
| 20260508004503 | 10 | 355 | 0.0 | 0.0 | 0.00 | 1.45 | 1.45 | 94 | 1001.8 |
| 20260508003002 | 10 | 355 | 0.0 | 3.2 | 0.00 | 1.45 | 1.45 | 94 | 1002.1 |
| 20260508001502 | 10 | 355 | 1.6 | 8.0 | 0.00 | 1.45 | 1.45 | 94 | 1001.9 |
| 20260508000001 | 10 | 343 | 0.0 | 4.8 | 0.00 | 1.45 | 1.45 | 95 | 1001.6 |
| 20260507234606 | 10 | 344 | 3.2 | 8.0 | 0.00 | 1.45 | 1.45 | 94 | 1001.1 |
| 20260507233057 | 10 | 302 | 3.2 | 6.4 | 0.00 | 1.45 | 1.45 | 93 | 1001.1 |
| 20260507231601 | 10 | 295 | 1.6 | 4.8 | 0.00 | 1.45 | 1.45 | 93 | 1001.2 |
| 20260507230100 | 10 | 295 | 0.0 | 6.4 | 0.00 | 1.45 | 1.45 | 93 | 1000.9 |
| 20260507224555 | 11 | 296 | 3.2 | 4.8 | 0.00 | 1.45 | 1.45 | 91 | 1000.9 |
| 20260507223056 | 12 | 292 | 3.2 | 6.4 | 0.00 | 1.45 | 1.45 | 93 | 1000.8 |
| 20260507221552 | 12 | 282 | 0.0 | 3.2 | 0.00 | 1.45 | 1.45 | 93 | 1000.9 |
| 20260507220052 | 12 | 283 | 0.0 | 4.8 | 0.00 | 1.45 | 1.45 | 93 | 1000.8 |
| 20260507214555 | 12 | 283 | 0.0 | 6.4 | 0.00 | 1.45 | 1.45 | 94 | 1000.8 |
| 20260507213049 | 12 | 214 | 0.0 | 8.0 | 0.03 | 1.45 | 1.45 | 94 | 1001.1 |
| 20260507211551 | 12 | 188 | 11.3 | 19.3 | 0.08 | 1.45 | 1.45 | 93 | 1000.9 |
| 20260507210050 | 12 | 252 | 4.8 | 19.3 | 0.20 | 1.45 | 1.45 | 93 | 1001.7 |
| 20260507204547 | 12 | 172 | 9.7 | 29.0 | 0.36 | 1.45 | 1.45 | 93 | 1000.6 |